{"data":{"norad_id":67741,"intl_designator":"2026-026W","name":"STARLINK-36740","alt_names":[],"object_type":"PAYLOAD","status":"ACTIVE","operator":null,"country":"US","launch_date":"2026-02-11","launch_site_code":"AFWTR","launch_vehicle":null,"mission":null,"orbit_class":"UNKNOWN","rcs_meters":null,"size_class":null,"mass_kg":null,"dimensions":null,"purposes":["comms"],"wikipedia_slug":null,"has_3d_model":false,"image_url":null,"decayed_at":null,"tle_current":{"epoch":"2026-05-25T02:50:37.079808Z","epoch_age_seconds":61479,"freshness":"FRESH","line1":"1 67741U 26026W   26145.11848472  .00007489  00000+0  23411-3 0  9995","line2":"2 67741  97.2853 198.7160 0000879  92.8730 267.2613 15.33441193 15845","mean_motion":15.33441193,"eccentricity":8.79e-5,"inclination_deg":97.2853,"raan_deg":198.716,"arg_perigee_deg":92.873,"mean_anomaly_deg":267.2613,"bstar":0.00023411,"rev_number":1584,"period_min":93.90643779321,"perigee_km":464.95294097213,"apogee_km":466.15606193809,"semimajor_km":6843.6915014551,"source":"CELESTRAK","updated_at":"2026-05-25T13:38:21.690771Z"}}}